Port Heiden, AK

7:27 AM AKDT on April 20, 2018 (GMT -0800)
Port Heiden

Weather History for PAPH - July, 2013

Change the Weather History Date:

Sunday, July 14, 2013

  Actual Average Record
Temperature  
Mean Temperature 55 °F -  
Max Temperature 62 °F 55 °F 68 °F (2000)
Min Temperature 48 °F 45 °F 42 °F (1998)
Degree Days  
Heating Degree Days 10    
Growing Degree Days 5 (Base 50)    
Moisture  
Dew Point 43 °F    
Average Humidity 61    
Maximum Humidity 71    
Minimum Humidity 40    
Precipitation  
Precipitation 0.00 in - - ()
Sea Level Pressure  
Sea Level Pressure 30.19 in    
Wind  
Wind Speed 19 mph (SSE)    
Max Wind Speed 47 mph    
Max Gust Speed 32 mph    
Visibility 10 miles    
Events      
Averages and records for this station are not official NWS values.
T = Trace of Precipitation, MM = Missing Value Source: NWS Daily Summary

Daily Weather History Graph

Daily Weather History Graph

Search for Another Location

Airport or City:

Astronomy

Jul. 14, 2013 Rise Set
Actual Time 6:02 AM AKDT 11:17 PM AKDT
Civil Twilight 5:02 AM AKDT 12:17 AM AKDT
Nautical Twilight 3:12 AM AKDT 2:08 AM AKDT
Astronomical Twilight Sun does not set Sun does not set
Moon 2:04 PM AKDT (7/14) 12:39 AM AKDT (7/14)
Length of Visible Light 19h 15m
Length of Day
17h 15m
Waxing Crescent, 36% of the Moon is Illuminated
Jul 14
Waxing Crescent
Jul 15
First Quarter
Jul 22
Full
Jul 29
Last Quarter
Aug 6
New

Hourly Weather History & Observations

Time (AKDT) Temp. Dew Point Humidity Pressure Visibility Wind Dir Wind Speed Gust Speed Precip Events Conditions
12:16 AM 53.6 °F 42.8 °F 67% 30.09 in 10.0 mi SSE 17.3 mph - N/A   Clear
12:36 AM 53.6 °F 42.8 °F 67% 30.10 in 10.0 mi SSE 17.3 mph 23.0 mph N/A   Clear
12:56 AM 51.8 °F 42.8 °F 71% 30.10 in 10.0 mi SSE 21.9 mph 25.3 mph N/A   Clear
1:16 AM 51.8 °F 42.8 °F 71% 30.10 in 10.0 mi SSE 23.0 mph 26.5 mph N/A   Clear
1:36 AM 51.8 °F 42.8 °F 71% 30.10 in 10.0 mi SSE 17.3 mph - N/A   Clear
1:56 AM 51.8 °F 42.8 °F 71% 30.11 in 10.0 mi SSE 19.6 mph 24.2 mph N/A   Clear
2:16 AM 51.8 °F 42.8 °F 71% 30.11 in 10.0 mi SSE 17.3 mph - N/A   Clear
2:36 AM 51.8 °F 42.8 °F 71% 30.12 in 10.0 mi SSE 19.6 mph - N/A   Clear
2:56 AM 51.8 °F 41.0 °F 67% 30.12 in 10.0 mi SSE 21.9 mph - N/A   Clear
3:16 AM 50.0 °F 41.0 °F 71% 30.13 in 10.0 mi SSE 17.3 mph - N/A   Clear
3:36 AM 50.0 °F 39.2 °F 66% 30.13 in 10.0 mi SSE 18.4 mph - N/A   Clear
3:56 AM 50.0 °F 41.0 °F 71% 30.13 in 10.0 mi SSE 15.0 mph - N/A   Clear
4:16 AM 50.0 °F 39.2 °F 66% 30.14 in 10.0 mi SSE 15.0 mph - N/A   Clear
4:36 AM 50.0 °F 41.0 °F 71% 30.15 in 10.0 mi SSE 12.7 mph - N/A   Clear
4:56 AM 50.0 °F 41.0 °F 71% 30.15 in 10.0 mi SSE 13.8 mph - N/A   Clear
5:16 AM 48.2 °F 39.2 °F 71% 30.15 in 10.0 mi SSE 15.0 mph - N/A   Clear
5:36 AM 48.2 °F 39.2 °F 71% 30.15 in 10.0 mi SSE 19.6 mph 23.0 mph N/A   Clear
5:56 AM 48.2 °F 39.2 °F 71% 30.16 in 10.0 mi SSE 15.0 mph 26.5 mph N/A   Clear
6:16 AM 48.2 °F 39.2 °F 71% 30.16 in 10.0 mi SSE 20.7 mph 27.6 mph N/A   Clear
6:36 AM 50.0 °F 41.0 °F 71% 30.17 in 10.0 mi SSE 20.7 mph 26.5 mph N/A   Clear
6:56 AM 50.0 °F 39.2 °F 66% 30.17 in 10.0 mi SSE 19.6 mph 25.3 mph N/A   Clear
7:16 AM 50.0 °F 41.0 °F 71% 30.18 in 10.0 mi SE 16.1 mph - N/A   Clear
7:36 AM 51.8 °F 41.0 °F 67% 30.17 in 10.0 mi SE 18.4 mph 23.0 mph N/A   Clear
7:56 AM 53.6 °F 41.0 °F 62% 30.19 in 10.0 mi SE 13.8 mph - N/A   Clear
8:16 AM 53.6 °F 42.8 °F 67% 30.18 in 10.0 mi SSE 19.6 mph 24.2 mph N/A   Mostly Cloudy
8:36 AM 53.6 °F 42.8 °F 67% 30.19 in 10.0 mi SE 19.6 mph - N/A   Overcast
8:56 AM 53.6 °F 42.8 °F 67% 30.18 in 10.0 mi SE 18.4 mph - N/A   Overcast
9:16 AM 53.6 °F 42.8 °F 67% 30.19 in 10.0 mi SE 17.3 mph 27.6 mph N/A   Mostly Cloudy
9:36 AM 55.4 °F 42.8 °F 63% 30.19 in 10.0 mi SSE 16.1 mph 26.5 mph N/A   Partly Cloudy
9:56 AM 55.4 °F 42.8 °F 63% 30.19 in 10.0 mi SSE 24.2 mph 27.6 mph N/A   Mostly Cloudy
10:16 AM 57.2 °F 42.8 °F 59% 30.19 in 10.0 mi SE 21.9 mph 27.6 mph N/A   Overcast
10:36 AM 57.2 °F 42.8 °F 59% 30.20 in 10.0 mi SE 23.0 mph 27.6 mph N/A   Overcast
10:56 AM 57.2 °F 44.6 °F 63% 30.20 in 10.0 mi SSE 23.0 mph 29.9 mph N/A   Overcast
11:16 AM 59.0 °F 42.8 °F 55% 30.19 in 10.0 mi SSE 25.3 mph 28.8 mph N/A   Scattered Clouds
11:36 AM 59.0 °F 42.8 °F 55% 30.19 in 10.0 mi SE 23.0 mph 29.9 mph N/A   Clear
11:56 AM 59.0 °F 42.8 °F 55% 30.20 in 10.0 mi SSE 23.0 mph - N/A   Clear
12:16 PM 60.8 °F 42.8 °F 52% 30.21 in 10.0 mi SSE 24.2 mph 29.9 mph N/A   Clear
12:36 PM 60.8 °F 44.6 °F 55% 30.21 in 10.0 mi SE 23.0 mph 27.6 mph N/A   Clear
12:56 PM 60.8 °F 42.8 °F 52% 30.21 in 10.0 mi SSE 18.4 mph - N/A   Clear
1:16 PM 60.8 °F 44.6 °F 55% 30.22 in 10.0 mi SE 21.9 mph 25.3 mph N/A   Clear
1:36 PM 60.8 °F 44.6 °F 55% 30.22 in 10.0 mi SSE 24.2 mph 29.9 mph N/A   Clear
1:56 PM 60.8 °F 42.8 °F 52% 30.22 in 10.0 mi SSE 19.6 mph 26.5 mph N/A   Clear
2:16 PM 60.8 °F 42.8 °F 52% 30.22 in 10.0 mi SSE 24.2 mph 27.6 mph N/A   Clear
2:36 PM 62.6 °F 44.6 °F 52% 30.22 in 10.0 mi SSE 20.7 mph 27.6 mph N/A   Clear
2:56 PM 62.6 °F 44.6 °F 52% 30.22 in 10.0 mi SSE 20.7 mph 27.6 mph N/A   Clear
3:16 PM 62.6 °F 44.6 °F 52% 30.21 in 10.0 mi SSE 20.7 mph 27.6 mph N/A   Clear
3:36 PM 62.6 °F 44.6 °F 52% 30.21 in 10.0 mi SSE 23.0 mph 28.8 mph N/A   Clear
3:56 PM 62.6 °F 44.6 °F 52% 30.22 in 10.0 mi SSE 24.2 mph 28.8 mph N/A   Clear
4:16 PM 62.6 °F 44.6 °F 52% 30.22 in 10.0 mi SE 21.9 mph 27.6 mph N/A   Clear
4:36 PM 62.6 °F 44.6 °F 52% 30.22 in 10.0 mi SE 20.7 mph 29.9 mph N/A   Clear
4:56 PM 62.6 °F 44.6 °F 52% 30.22 in 10.0 mi SE 24.2 mph 32.2 mph N/A   Clear
5:16 PM 62.6 °F 44.6 °F 52% 30.22 in 10.0 mi SE 21.9 mph - N/A   Clear
5:36 PM 62.6 °F 44.6 °F 52% 30.23 in 10.0 mi SSE 18.4 mph - N/A   Clear
5:56 PM 62.6 °F 44.6 °F 52% 30.23 in 10.0 mi SSE 24.2 mph - N/A   Clear
6:16 PM 62.6 °F 44.6 °F 52% 30.23 in 10.0 mi SSE 23.0 mph 26.5 mph N/A   Clear
6:36 PM 60.8 °F 44.6 °F 55% 30.23 in 10.0 mi SSE 17.3 mph - N/A   Clear
6:56 PM 60.8 °F 44.6 °F 55% 30.23 in 10.0 mi SSE 13.8 mph - N/A   Clear
7:16 PM 60.8 °F 44.6 °F 55% 30.24 in 10.0 mi SSE 12.7 mph - N/A   Clear
7:36 PM 60.8 °F 44.6 °F 55% 30.24 in 10.0 mi SSE 16.1 mph - N/A   Clear
7:56 PM 60.8 °F 44.6 °F 55% 30.24 in 10.0 mi SSE 18.4 mph - N/A   Clear
8:16 PM 59.0 °F 44.6 °F 59% 30.24 in 10.0 mi SSE 17.3 mph - N/A   Clear
8:36 PM 57.2 °F 44.6 °F 63% 30.24 in 10.0 mi SSE 15.0 mph - N/A   Clear
8:56 PM 57.2 °F 42.8 °F 59% 30.25 in 10.0 mi SSE 15.0 mph - N/A   Clear
9:16 PM 57.2 °F 44.6 °F 63% 30.25 in 10.0 mi SSE 15.0 mph - N/A   Clear
9:36 PM 57.2 °F 42.8 °F 59% 30.24 in 10.0 mi SE 12.7 mph - N/A   Clear
9:56 PM 57.2 °F 44.6 °F 63% 30.25 in 10.0 mi SE 6.9 mph - N/A   Clear
10:16 PM 57.2 °F 42.8 °F 59% 30.26 in 10.0 mi SSE 6.9 mph - N/A   Clear
10:36 PM 55.4 °F 42.8 °F 63% 30.26 in 10.0 mi SE 5.8 mph - N/A   Clear
10:56 PM 55.4 °F 42.8 °F 63% 30.26 in 10.0 mi SSE 3.5 mph - N/A   Clear
11:16 PM 55.4 °F 44.6 °F 67% 30.26 in 10.0 mi SSE 3.5 mph - N/A   Clear
11:36 PM 55.4 °F 42.8 °F 63% 30.27 in 10.0 mi Calm Calm - N/A   Clear
11:56 PM 53.6 °F 42.8 °F 67% 30.27 in 10.0 mi Calm Calm - N/A   Clear